This is the latest recevied weather packets stored in our database for station/object NC4M. If no packets are shown the sender has not sent any weather packets the latest 10 day(s).
| Time | Temp. | Humidity | Pressure | Rain* | Wind** | Luminosity | Snow |
|---|---|---|---|---|---|---|---|
| 1787447438 | 22.22° C | 85% | 1017.4 hPa | 0 mm | - | 0 W/m² | - |
| 1787447135 | 22.22° C | 86% | 1017.6 hPa | 0 mm | - | 0 W/m² | - |
| 1787446832 | 22.78° C | 85% | 1017.5 hPa | 0 mm | - | 1 W/m² | - |
| 1787446531 | 22.78° C | 82% | 1017.8 hPa | 0 mm | - | 2 W/m² | - |
| 1787446226 | 23.33° C | 83% | 1017.5 hPa | 0 mm | - | 3 W/m² | - |
| 1787445923 | 23.33° C | 80% | 1017.7 hPa | 0 mm | - | 5 W/m² | - |
| 1787445619 | 23.89° C | 77% | 1017.7 hPa | 0 mm | - | 7 W/m² | - |
| 1787445315 | 23.89° C | 76% | 1017.7 hPa | 0 mm | - | 9 W/m² | - |
| 1787445009 | 24.44° C | 76% | 1017.7 hPa | 0 mm | - | 12 W/m² | - |
| 1787444706 | 24.44° C | 70% | 1017.5 hPa | 0 mm | - | 15 W/m² | - |
| 1787444402 | 25° C | 69% | 1017.8 hPa | 0 mm | - | 17 W/m² | - |
| 1787444097 | 25° C | 68% | 1017.6 hPa | 0 mm | - | 20 W/m² | - |
| 1787443796 | 25° C | 69% | 1017.7 hPa | 0 mm | - | 23 W/m² | - |
| 1787443491 | 25.56° C | 66% | 1017.6 hPa | 0 mm | - | 25 W/m² | - |
| 1787443190 | 25.56° C | 64% | 1017.6 hPa | 0 mm | - | 27 W/m² | - |
| 1787442885 | 25.56° C | 65% | 1017.5 hPa | 0 mm | - | 30 W/m² | - |
| 1787442582 | 26.11° C | 63% | 1017.6 hPa | 0 mm | - | 32 W/m² | - |
| 1787442277 | 26.11° C | 62% | 1017.6 hPa | 0 mm | - | 34 W/m² | - |
| 1787441972 | 26.11° C | 62% | 1017.6 hPa | 0 mm | - | 35 W/m² | - |
| 1787441667 | 26.67° C | 61% | 1017.5 hPa | 0 mm | - | 37 W/m² | - |
| 1787441362 | 26.67° C | 61% | 1017.4 hPa | 0 mm | - | 39 W/m² | - |
| 1787441058 | 26.67° C | 62% | 1017.6 hPa | 0 mm | - | 42 W/m² | - |
| 1787440754 | 26.67° C | 63% | 1017.4 hPa | 0 mm | - | 44 W/m² | - |
| 1787440448 | 26.67° C | 63% | 1017.5 hPa | 0 mm | - | 47 W/m² | - |
| 1787440146 | 26.67° C | 63% | 1017.6 hPa | 0 mm | - | 47 W/m² | - |
* Rain latest hour (hover to see other rain measurements)
** Current wind speed in m/s (hover to see current wind gust speed)